Terug naar catalogus

STARLINK-34226

ActiefCommunicatieVLEO
NORAD 64494·PAYLOAD·🇺🇸 United States

Gelanceerd Jun 23, 2025 vanaf Cape Canaveral Space Force Station

Loading…

Volgende Passages (komende 24 uur)

TLE

VersSource: CelesTrak SupGP

Epoch: Sep 14, 2026, 23:02 UTC

1 64494C 25133Y   26257.96020833  .00033690  00000+0  10834-2 0  2579
2 64494  53.1596 316.4184 0001205  85.8429 286.5864 15.31683128    17

Volg STARLINK-34226 in realtime met AllMySat

Download on the App Store